Time,TemperatureF,DewpointF,PressureIn,WindDirection,WindDirectionDegrees,WindSpeedMPH,WindSpeedGustMPH,Humidity,HourlyPrecipIn,Conditions,Clouds,dailyrainin,SoftwareType,DateUTC
2013-07-10 00:00:00,72.0,69.0,30.03,East,79,2.0,6.0,90,0.00,,,-99.99,,2013-07-10 04:00:00,
2013-07-10 00:33:00,72.0,69.0,30.03,East,79,2.0,6.0,90,0.00,,,-99.99,,2013-07-10 04:33:00,
2013-07-10 00:43:00,72.0,69.0,30.03,East,79,2.0,6.0,90,0.00,,,-99.99,,2013-07-10 04:43:00,
2013-07-10 00:52:00,72.0,69.0,30.03,East,79,2.0,6.0,90,0.00,,,-99.99,,2013-07-10 04:52:00,
2013-07-10 01:00:00,72.0,70.0,30.03,SE,134,3.0,8.0,92,0.00,,,-99.99,,2013-07-10 05:00:00,
2013-07-10 01:32:00,72.0,70.0,30.03,SE,134,3.0,8.0,92,0.00,,,-99.99,,2013-07-10 05:32:00,
2013-07-10 01:42:00,72.0,70.0,30.03,SE,134,3.0,8.0,92,0.00,,,-99.99,,2013-07-10 05:42:00,
2013-07-10 01:53:00,72.0,70.0,30.03,SE,134,3.0,8.0,92,0.00,,,-99.99,,2013-07-10 05:53:00,
2013-07-10 02:00:00,72.0,70.0,30.00,SSE,163,2.0,6.0,93,0.00,,,-99.99,,2013-07-10 06:00:00,
2013-07-10 02:33:00,72.0,70.0,30.00,SSE,163,2.0,6.0,93,0.00,,,-99.99,,2013-07-10 06:33:00,
2013-07-10 02:42:00,72.0,70.0,30.00,SSE,163,2.0,6.0,93,0.00,,,-99.99,,2013-07-10 06:42:00,
2013-07-10 02:52:00,72.0,70.0,30.00,SSE,163,2.0,6.0,93,0.00,,,-99.99,,2013-07-10 06:52:00,
2013-07-10 03:00:00,72.0,69.0,29.97,SSW,196,6.0,6.0,93,0.00,,,-99.99,,2013-07-10 07:00:00,
2013-07-10 03:33:00,72.0,69.0,29.97,SSW,196,6.0,6.0,93,0.00,,,-99.99,,2013-07-10 07:33:00,
2013-07-10 03:43:00,72.0,69.0,29.97,SSW,196,6.0,6.0,93,0.00,,,-99.99,,2013-07-10 07:43:00,
2013-07-10 03:53:00,72.0,69.0,29.97,SSW,196,6.0,6.0,93,0.00,,,-99.99,,2013-07-10 07:53:00,
2013-07-10 04:00:00,71.0,69.0,29.97,SSW,198,4.0,7.0,93,0.00,,,-99.99,,2013-07-10 08:00:00,
2013-07-10 04:33:00,71.0,69.0,29.97,SSW,198,4.0,7.0,93,0.00,,,-99.99,,2013-07-10 08:33:00,
2013-07-10 04:42:00,71.0,69.0,29.97,SSW,198,4.0,7.0,93,0.00,,,-99.99,,2013-07-10 08:42:00,
2013-07-10 04:53:00,71.0,69.0,29.97,SSW,198,4.0,7.0,93,0.00,,,-99.99,,2013-07-10 08:53:00,
2013-07-10 05:00:00,71.0,69.0,29.97,SW,215,4.0,6.0,92,0.00,,,-99.99,,2013-07-10 09:00:00,
2013-07-10 05:33:00,71.0,69.0,29.97,SW,215,4.0,6.0,92,0.00,,,-99.99,,2013-07-10 09:33:00,
2013-07-10 05:43:00,71.0,69.0,29.97,SW,215,4.0,6.0,92,0.00,,,-99.99,,2013-07-10 09:43:00,
2013-07-10 05:53:00,71.0,69.0,29.97,SW,215,4.0,6.0,92,0.00,,,-99.99,,2013-07-10 09:53:00,
2013-07-10 06:00:00,-999.0,-99.9,29.97,SSE,167,3.0,5.0,-999,-99.99,,,-99.99,,2013-07-10 10:00:00,
2013-07-10 06:32:00,71.0,68.0,29.97,SSE,167,3.0,5.0,93,0.00,,,-99.99,,2013-07-10 10:32:00,
2013-07-10 06:51:00,-999.0,-99.9,29.97,SSE,167,3.0,5.0,-999,-99.99,,,-99.99,,2013-07-10 10:51:00,
2013-07-10 07:00:00,72.0,70.0,29.97,SSW,213,7.0,8.0,92,0.00,,,-99.99,,2013-07-10 11:00:00,
2013-07-10 07:33:00,72.0,70.0,29.97,SSW,213,7.0,8.0,92,0.00,,,-99.99,,2013-07-10 11:33:00,
2013-07-10 07:43:00,72.0,70.0,29.97,SSW,213,7.0,8.0,92,0.00,,,-99.99,,2013-07-10 11:43:00,
2013-07-10 07:52:00,72.0,70.0,29.97,SSW,213,7.0,8.0,92,0.00,,,-99.99,,2013-07-10 11:52:00,
2013-07-10 08:00:00,76.0,72.0,29.97,SSW,205,5.0,9.0,89,0.00,,,-99.99,,2013-07-10 12:00:00,
2013-07-10 08:43:00,76.0,72.0,29.97,SSW,205,5.0,9.0,89,0.00,,,-99.99,,2013-07-10 12:43:00,
2013-07-10 08:53:00,76.0,72.0,29.97,SSW,205,5.0,9.0,89,0.00,,,-99.99,,2013-07-10 12:53:00,
2013-07-10 09:00:00,80.0,74.0,29.97,SSW,205,7.0,12.0,83,0.00,,,-99.99,,2013-07-10 13:00:00,
2013-07-10 09:32:00,80.0,74.0,29.97,SSW,205,7.0,12.0,83,0.00,,,-99.99,,2013-07-10 13:32:00,
2013-07-10 09:43:00,80.0,74.0,29.97,SSW,205,7.0,12.0,83,0.00,,,-99.99,,2013-07-10 13:43:00,
2013-07-10 09:52:00,80.0,74.0,29.97,SSW,205,7.0,12.0,83,0.00,,,-99.99,,2013-07-10 13:52:00,
2013-07-10 10:00:00,82.0,74.0,29.94,SSW,206,10.0,15.0,78,0.00,,,-99.99,,2013-07-10 14:00:00,
2013-07-10 10:33:00,82.0,74.0,29.94,SSW,206,10.0,15.0,78,0.00,,,-99.99,,2013-07-10 14:33:00,
2013-07-10 10:44:00,82.0,74.0,29.94,SSW,206,10.0,15.0,78,0.00,,,-99.99,,2013-07-10 14:44:00,
2013-07-10 10:53:00,82.0,74.0,29.94,SSW,206,10.0,15.0,78,0.00,,,-99.99,,2013-07-10 14:53:00,
2013-07-10 11:00:00,84.0,73.0,29.94,SW,217,15.0,18.0,69,0.00,,,-99.99,,2013-07-10 15:00:00,
2013-07-10 11:34:00,84.0,73.0,29.94,SW,217,15.0,18.0,69,0.00,,,-99.99,,2013-07-10 15:34:00,
2013-07-10 11:43:00,84.0,73.0,29.94,SW,217,15.0,18.0,69,0.00,,,-99.99,,2013-07-10 15:43:00,
2013-07-10 11:52:00,84.0,73.0,29.94,SW,217,15.0,18.0,69,0.00,,,-99.99,,2013-07-10 15:52:00,
2013-07-10 12:00:00,86.0,73.0,29.93,SW,234,12.0,18.0,66,0.00,,,-99.99,,2013-07-10 16:00:00,
2013-07-10 12:44:00,86.0,73.0,29.93,SW,234,12.0,18.0,66,0.00,,,-99.99,,2013-07-10 16:44:00,
2013-07-10 12:53:00,86.0,73.0,29.93,SW,234,12.0,18.0,66,0.00,,,-99.99,,2013-07-10 16:53:00,
2013-07-10 13:00:00,86.0,71.0,29.93,SSW,212,11.0,21.0,60,0.00,,,-99.99,,2013-07-10 17:00:00,
2013-07-10 13:43:00,86.0,71.0,29.93,SSW,212,11.0,21.0,60,0.00,,,-99.99,,2013-07-10 17:43:00,
2013-07-10 13:53:00,86.0,71.0,29.93,SSW,212,11.0,21.0,60,0.00,,,-99.99,,2013-07-10 17:53:00,
2013-07-10 15:00:00,81.0,71.0,29.91,SSE,162,0.0,15.0,71,0.00,,,-99.99,,2013-07-10 19:00:00,
2013-07-10 15:32:00,81.0,71.0,29.91,SSE,162,0.0,15.0,71,0.00,,,-99.99,,2013-07-10 19:32:00,
2013-07-10 15:42:00,81.0,71.0,29.91,SSE,162,0.0,15.0,71,0.00,,,-99.99,,2013-07-10 19:42:00,
2013-07-10 15:53:00,81.0,71.0,29.91,SSE,162,0.0,15.0,71,0.00,,,-99.99,,2013-07-10 19:53:00,
2013-07-10 16:00:00,86.0,71.0,29.88,SSW,202,7.0,14.0,60,0.00,,,-99.99,,2013-07-10 20:00:00,
2013-07-10 16:32:00,86.0,71.0,29.88,SSW,202,7.0,14.0,60,0.00,,,-99.99,,2013-07-10 20:32:00,
2013-07-10 16:43:00,86.0,71.0,29.88,SSW,202,7.0,14.0,60,0.00,,,-99.99,,2013-07-10 20:43:00,
2013-07-10 16:52:00,86.0,71.0,29.88,SSW,202,7.0,14.0,60,0.00,,,-99.99,,2013-07-10 20:52:00,
2013-07-10 17:00:00,86.0,71.0,29.85,SW,214,9.0,16.0,62,0.00,,,-99.99,,2013-07-10 21:00:00,
2013-07-10 17:32:00,86.0,71.0,29.85,SW,214,9.0,16.0,62,0.00,,,-99.99,,2013-07-10 21:32:00,
2013-07-10 17:42:00,86.0,71.0,29.85,SW,214,9.0,16.0,62,0.00,,,-99.99,,2013-07-10 21:42:00,
2013-07-10 17:52:00,86.0,71.0,29.85,SW,214,9.0,16.0,62,0.00,,,-99.99,,2013-07-10 21:52:00,
2013-07-10 18:00:00,85.0,73.0,29.84,SSW,195,11.0,17.0,67,0.00,,,-99.99,,2013-07-10 22:00:00,
2013-07-10 18:33:00,85.0,73.0,29.84,SSW,195,11.0,17.0,67,0.00,,,-99.99,,2013-07-10 22:33:00,
2013-07-10 18:43:00,85.0,73.0,29.84,SSW,195,11.0,17.0,67,0.00,,,-99.99,,2013-07-10 22:43:00,
2013-07-10 18:53:00,85.0,73.0,29.84,SSW,195,11.0,17.0,67,0.00,,,-99.99,,2013-07-10 22:53:00,
2013-07-10 19:00:00,84.0,73.0,29.86,SSW,212,7.0,16.0,70,0.00,,,-99.99,,2013-07-10 23:00:00,
2013-07-10 19:32:00,84.0,73.0,29.86,SSW,212,7.0,16.0,70,0.00,,,-99.99,,2013-07-10 23:32:00,
2013-07-10 19:43:00,84.0,73.0,29.86,SSW,212,7.0,16.0,70,0.00,,,-99.99,,2013-07-10 23:43:00,
2013-07-10 19:52:00,84.0,73.0,29.86,SSW,212,7.0,16.0,70,0.00,,,-99.99,,2013-07-10 23:52:00,
2013-07-10 20:00:00,80.0,74.0,29.86,SSW,193,5.0,9.0,81,0.00,,,-99.99,,2013-07-11 00:00:00,
2013-07-10 20:32:00,80.0,74.0,29.86,SSW,193,5.0,9.0,81,0.00,,,-99.99,,2013-07-11 00:32:00,
2013-07-10 20:43:00,80.0,74.0,29.86,SSW,193,5.0,9.0,81,0.00,,,-99.99,,2013-07-11 00:43:00,
2013-07-10 20:52:00,80.0,74.0,29.86,SSW,193,5.0,9.0,81,0.00,,,-99.99,,2013-07-11 00:52:00,
2013-07-10 21:00:00,79.0,74.0,29.87,SW,218,4.0,9.0,83,0.00,,,-99.99,,2013-07-11 01:00:00,
2013-07-10 21:32:00,79.0,74.0,29.87,SW,218,4.0,9.0,83,0.00,,,-99.99,,2013-07-11 01:32:00,
2013-07-10 21:43:00,79.0,74.0,29.87,SW,218,4.0,9.0,83,0.00,,,-99.99,,2013-07-11 01:43:00,
2013-07-10 21:52:00,79.0,74.0,29.87,SW,218,4.0,9.0,83,0.00,,,-99.99,,2013-07-11 01:52:00,
2013-07-10 22:00:00,79.0,73.0,29.89,SSW,210,6.0,10.0,82,0.00,,,-99.99,,2013-07-11 02:00:00,
2013-07-10 22:32:00,79.0,73.0,29.89,SSW,210,6.0,10.0,82,0.00,,,-99.99,,2013-07-11 02:32:00,
2013-07-10 22:44:00,79.0,73.0,29.89,SSW,210,6.0,10.0,82,0.00,,,-99.99,,2013-07-11 02:44:00,
2013-07-10 22:53:00,79.0,73.0,29.89,SSW,210,6.0,10.0,82,0.00,,,-99.99,,2013-07-11 02:53:00,
2013-07-10 23:00:00,79.0,72.0,29.87,SW,218,4.0,12.0,82,0.00,,,-99.99,,2013-07-11 03:00:00,
2013-07-10 23:42:00,79.0,72.0,29.87,SW,218,4.0,12.0,82,0.00,,,-99.99,,2013-07-11 03:42:00,
2013-07-10 23:53:00,79.0,72.0,29.87,SW,218,4.0,12.0,82,0.00,,,-99.99,,2013-07-11 03:53:00,